Year,Month,Day,Hour,Minute,Value (Times are PST for temperature in C)
2013,08,23,00,00,17.80
2013,08,23,00,01,17.80
2013,08,23,00,02,17.80
2013,08,23,00,03,17.80
2013,08,23,00,04,17.70
2013,08,23,00,05,17.70
2013,08,23,00,06,17.70
2013,08,23,00,07,17.70
2013,08,23,00,08,17.70
2013,08,23,00,09,17.70
2013,08,23,00,10,17.60
2013,08,23,00,11,17.60
2013,08,23,00,12,17.60
2013,08,23,00,13,17.60
2013,08,23,00,14,17.60
2013,08,23,00,15,17.60
2013,08,23,00,16,17.60
2013,08,23,00,17,17.60
2013,08,23,00,18,17.60
2013,08,23,00,19,17.60
2013,08,23,00,20,17.60
2013,08,23,00,21,17.60
2013,08,23,00,22,17.60
2013,08,23,00,23,17.60
2013,08,23,00,24,17.60
2013,08,23,00,25,17.60
2013,08,23,00,26,17.60
2013,08,23,00,27,17.60
2013,08,23,00,28,17.60
2013,08,23,00,29,17.50
2013,08,23,00,30,17.50
2013,08,23,00,31,17.50
2013,08,23,00,32,17.40
2013,08,23,00,33,17.40
2013,08,23,00,34,17.40
2013,08,23,00,35,17.40
2013,08,23,00,36,17.30
2013,08,23,00,37,17.30
2013,08,23,00,38,17.30
2013,08,23,00,39,17.30
2013,08,23,00,40,17.30
2013,08,23,00,41,17.30
2013,08,23,00,42,17.30
2013,08,23,00,43,17.30
2013,08,23,00,44,17.30
2013,08,23,00,45,17.30
2013,08,23,00,46,17.30
2013,08,23,00,47,17.30
2013,08,23,00,48,17.20
2013,08,23,00,49,17.20
2013,08,23,00,50,17.20
2013,08,23,00,51,17.20
2013,08,23,00,52,17.20
2013,08,23,00,53,17.10
2013,08,23,00,54,17.10
2013,08,23,00,55,17.10
2013,08,23,00,56,17.10
2013,08,23,00,57,17.10
2013,08,23,00,58,17.00
2013,08,23,00,59,17.00
2013,08,23,01,00,17.00
2013,08,23,01,01,17.00
2013,08,23,01,02,17.00
2013,08,23,01,03,17.00
2013,08,23,01,04,17.00
2013,08,23,01,05,17.00
2013,08,23,01,06,16.90
2013,08,23,01,07,16.90
2013,08,23,01,08,16.90
2013,08,23,01,09,16.90
2013,08,23,01,10,16.90
2013,08,23,01,11,16.90
2013,08,23,01,12,16.90
2013,08,23,01,13,16.90
2013,08,23,01,14,16.90
2013,08,23,01,15,16.90
2013,08,23,01,16,16.90
2013,08,23,01,17,16.80
2013,08,23,01,18,16.80
2013,08,23,01,19,16.80
2013,08,23,01,20,16.80
2013,08,23,01,21,16.80
2013,08,23,01,22,16.70
2013,08,23,01,23,16.70
2013,08,23,01,24,16.70
2013,08,23,01,25,16.70
2013,08,23,01,26,16.70
2013,08,23,01,27,16.70
2013,08,23,01,28,16.70
2013,08,23,01,29,16.70
2013,08,23,01,30,16.70
2013,08,23,01,31,16.70
2013,08,23,01,32,16.70
2013,08,23,01,33,16.60
2013,08,23,01,34,16.60
2013,08,23,01,35,16.60
2013,08,23,01,36,16.60
2013,08,23,01,37,16.40
2013,08,23,01,38,16.40
2013,08,23,01,39,16.40
2013,08,23,01,40,16.40
2013,08,23,01,41,16.40
2013,08,23,01,42,16.40
2013,08,23,01,43,16.40
2013,08,23,01,44,16.40
2013,08,23,01,45,16.40
2013,08,23,01,46,16.40
2013,08,23,01,47,16.40
2013,08,23,01,48,16.40
2013,08,23,01,49,16.40
2013,08,23,01,50,16.40
2013,08,23,01,51,16.40
2013,08,23,01,52,16.40
2013,08,23,01,53,16.40
2013,08,23,01,54,16.40
2013,08,23,01,55,16.40
2013,08,23,01,56,16.40
2013,08,23,01,57,16.40
2013,08,23,01,58,16.30
2013,08,23,01,59,16.30
2013,08,23,02,00,16.30
2013,08,23,02,01,16.30
2013,08,23,02,02,16.20
2013,08,23,02,03,16.20
2013,08,23,02,04,16.20
2013,08,23,02,05,16.20
2013,08,23,02,06,16.20
2013,08,23,02,07,16.20
2013,08,23,02,08,16.20
2013,08,23,02,09,16.20
2013,08,23,02,10,16.20
2013,08,23,02,11,16.20
2013,08,23,02,12,16.20
2013,08,23,02,13,16.20
2013,08,23,02,14,16.30
2013,08,23,02,15,16.30
2013,08,23,02,16,16.30
2013,08,23,02,17,16.30
2013,08,23,02,18,16.30
2013,08,23,02,19,16.30
2013,08,23,02,20,16.30
2013,08,23,02,21,16.30
2013,08,23,02,22,16.30
2013,08,23,02,23,16.30
2013,08,23,02,24,16.30
2013,08,23,02,25,16.30
2013,08,23,02,26,16.30
2013,08,23,02,27,16.30
2013,08,23,02,28,16.30
2013,08,23,02,29,16.30
2013,08,23,02,30,16.30
2013,08,23,02,31,16.30
2013,08,23,02,32,16.30
2013,08,23,02,33,16.30
2013,08,23,02,34,16.20
2013,08,23,02,35,16.20
2013,08,23,02,36,16.30
2013,08,23,02,37,16.30
2013,08,23,02,38,16.30
2013,08,23,02,39,16.30
2013,08,23,02,40,16.40
2013,08,23,02,41,16.40
2013,08,23,02,42,16.40
2013,08,23,02,43,16.40
2013,08,23,02,44,16.40
2013,08,23,02,45,16.40
2013,08,23,02,46,16.60
2013,08,23,02,47,16.60
2013,08,23,02,48,16.60
2013,08,23,02,49,16.60
2013,08,23,02,50,16.60
2013,08,23,02,51,16.60
2013,08,23,02,52,16.60
2013,08,23,02,53,16.60
2013,08,23,02,54,16.60
2013,08,23,02,55,16.60
2013,08,23,02,56,16.60
2013,08,23,02,57,16.60
2013,08,23,06,54,15.80
2013,08,23,06,55,15.80
2013,08,23,06,56,15.80
2013,08,23,06,57,15.80
2013,08,23,06,58,15.80
2013,08,23,06,59,15.80
2013,08,23,07,00,15.80
2013,08,23,07,01,15.80
2013,08,23,07,02,15.80
2013,08,23,07,03,15.80
2013,08,23,07,04,15.70
2013,08,23,07,05,15.70
2013,08,23,07,06,15.60
2013,08,23,07,07,15.60
2013,08,23,07,08,15.50
2013,08,23,07,09,15.50
2013,08,23,07,10,15.50
2013,08,23,07,11,15.50
2013,08,23,07,12,15.50
2013,08,23,07,13,15.50
2013,08,23,07,14,15.50
2013,08,23,07,15,15.60
2013,08,23,07,16,15.60
2013,08,23,07,17,15.70
2013,08,23,07,18,15.70
2013,08,23,07,19,15.80
2013,08,23,07,20,15.80
2013,08,23,07,21,15.80
2013,08,23,07,22,15.90
2013,08,23,07,23,15.90
2013,08,23,07,24,16.10
2013,08,23,07,25,16.10
2013,08,23,07,26,16.10
2013,08,23,07,27,16.10
2013,08,23,07,28,16.20
2013,08,23,07,29,16.20
2013,08,23,07,30,16.30
2013,08,23,07,31,16.30
2013,08,23,07,32,16.30
2013,08,23,07,33,16.30
2013,08,23,07,34,16.40
2013,08,23,07,35,16.40
2013,08,23,07,36,16.40
2013,08,23,07,37,16.40
2013,08,23,07,38,16.40
2013,08,23,07,39,16.60
2013,08,23,07,40,16.60
2013,08,23,07,41,16.60
2013,08,23,07,42,16.70
2013,08,23,07,43,16.70
2013,08,23,07,44,16.70
2013,08,23,07,45,16.70
2013,08,23,07,46,16.70
2013,08,23,07,47,16.70
2013,08,23,07,48,16.70
2013,08,23,07,49,16.80
2013,08,23,07,50,16.80
2013,08,23,07,51,16.80
2013,08,23,07,52,16.80
2013,08,23,07,53,16.80
2013,08,23,07,54,16.90
2013,08,23,07,55,16.90
2013,08,23,07,56,16.90
2013,08,23,07,57,16.90
2013,08,23,07,58,17.00
2013,08,23,07,59,17.00
2013,08,23,08,00,17.10
2013,08,23,08,01,17.10
2013,08,23,08,02,17.10
2013,08,23,08,03,17.20
2013,08,23,08,04,17.20
2013,08,23,08,05,17.20
2013,08,23,08,06,17.20
2013,08,23,08,07,17.30
2013,08,23,08,08,17.30
2013,08,23,08,09,17.30
2013,08,23,08,10,17.30
2013,08,23,08,11,17.30
2013,08,23,08,12,17.30
2013,08,23,08,13,17.30
2013,08,23,08,14,17.30
2013,08,23,08,15,17.30
2013,08,23,08,16,17.30
2013,08,23,08,17,17.30
2013,08,23,08,18,17.30
2013,08,23,08,19,17.40
2013,08,23,08,20,17.40
2013,08,23,08,21,17.50
2013,08,23,08,22,17.50
2013,08,23,08,23,17.50
2013,08,23,08,24,17.60
2013,08,23,08,25,17.60
2013,08,23,08,26,17.70
2013,08,23,08,27,17.70
2013,08,23,08,28,17.70
2013,08,23,08,29,17.70
2013,08,23,08,30,17.70
2013,08,23,08,31,17.60
2013,08,23,08,32,17.60
2013,08,23,08,33,17.60
2013,08,23,08,34,17.50
2013,08,23,08,35,17.50
2013,08,23,08,36,17.50
2013,08,23,08,37,17.50
2013,08,23,08,38,17.50
2013,08,23,08,39,17.50
2013,08,23,08,40,17.50
2013,08,23,08,41,17.50
2013,08,23,08,42,17.50
2013,08,23,08,43,17.50
2013,08,23,08,44,17.50
2013,08,23,08,45,17.50
2013,08,23,08,46,17.50
2013,08,23,08,47,17.50
2013,08,23,08,48,17.50
2013,08,23,08,49,17.50
2013,08,23,08,50,17.50
2013,08,23,08,51,17.50
2013,08,23,08,52,17.50
2013,08,23,08,53,17.50
2013,08,23,08,54,17.50
2013,08,23,08,55,17.50
2013,08,23,08,56,17.50
2013,08,23,08,57,17.50
2013,08,23,08,58,17.50
2013,08,23,08,59,17.40
2013,08,23,09,00,17.40
2013,08,23,09,01,17.40
2013,08,23,09,02,17.40
2013,08,23,09,03,17.40
2013,08,23,09,04,17.40
2013,08,23,09,05,17.40
2013,08,23,09,06,17.50
2013,08,23,09,07,17.50
2013,08,23,09,08,17.50
2013,08,23,09,09,17.50
2013,08,23,09,10,17.50
2013,08,23,09,11,17.50
2013,08,23,09,12,17.50
2013,08,23,09,13,17.50
2013,08,23,09,14,17.60
2013,08,23,09,15,17.60
2013,08,23,09,16,17.60
2013,08,23,09,17,17.60
2013,08,23,09,18,17.60
2013,08,23,09,19,17.60
2013,08,23,09,20,17.60
2013,08,23,09,21,17.60
2013,08,23,09,22,17.70
2013,08,23,09,23,17.70
2013,08,23,09,24,17.70
2013,08,23,09,25,17.70
2013,08,23,09,26,17.70
2013,08,23,09,27,17.80
2013,08,23,09,28,17.80
2013,08,23,09,29,17.80
2013,08,23,09,30,17.80
2013,08,23,09,31,17.80
2013,08,23,09,32,17.80
2013,08,23,09,33,17.80
2013,08,23,09,34,17.80
2013,08,23,09,35,17.80
2013,08,23,09,36,17.80
2013,08,23,09,37,17.80
2013,08,23,09,38,17.80
2013,08,23,09,39,17.90
2013,08,23,09,40,17.90
2013,08,23,09,41,17.90
2013,08,23,09,42,17.90
2013,08,23,09,43,18.10
2013,08,23,09,44,18.10
2013,08,23,09,45,18.10
2013,08,23,09,46,18.20
2013,08,23,09,47,18.20
2013,08,23,09,48,18.20
2013,08,23,09,49,18.20
2013,08,23,09,50,18.20
2013,08,23,09,51,18.20
2013,08,23,09,52,18.30
2013,08,23,09,53,18.30
2013,08,23,09,54,18.50
2013,08,23,09,55,18.60
2013,08,23,09,56,18.70
2013,08,23,09,57,18.80
2013,08,23,09,58,18.90
2013,08,23,09,59,18.90
2013,08,23,10,00,19.10
2013,08,23,10,01,19.10
2013,08,23,10,02,19.10
2013,08,23,10,03,19.10
2013,08,23,10,04,19.10
2013,08,23,10,05,19.10
2013,08,23,10,06,19.10
2013,08,23,10,07,19.10
2013,08,23,10,08,19.10
2013,08,23,10,09,19.10
2013,08,23,10,10,19.10
2013,08,23,10,11,19.20
2013,08,23,10,12,19.20
2013,08,23,10,13,19.30
2013,08,23,10,14,19.30
2013,08,23,10,15,19.40
2013,08,23,10,16,19.40
2013,08,23,10,17,19.50
2013,08,23,10,18,19.50
2013,08,23,10,19,19.50
2013,08,23,10,20,19.60
2013,08,23,10,21,19.70
2013,08,23,10,22,19.80
2013,08,23,10,23,19.80
2013,08,23,10,24,19.90
2013,08,23,10,25,19.90
2013,08,23,10,26,19.90
2013,08,23,10,27,19.90
2013,08,23,10,28,19.90
2013,08,23,10,29,20.10
2013,08,23,10,30,20.10
2013,08,23,10,31,20.20
2013,08,23,10,32,20.20
2013,08,23,10,33,20.20
2013,08,23,10,34,20.20
2013,08,23,10,35,20.30
2013,08,23,10,36,20.30
2013,08,23,10,37,20.30
2013,08,23,10,38,20.30
2013,08,23,10,39,20.30
2013,08,23,10,40,20.30
2013,08,23,10,41,20.20
2013,08,23,10,42,20.20
2013,08,23,10,43,20.20
2013,08,23,10,44,20.20
2013,08,23,10,45,20.20
2013,08,23,10,46,20.20
2013,08,23,10,47,20.20
2013,08,23,10,48,20.20
2013,08,23,10,49,20.20
2013,08,23,10,50,20.20
2013,08,23,10,51,20.20
2013,08,23,10,52,20.20
2013,08,23,10,53,20.20
2013,08,23,10,54,20.20
2013,08,23,10,55,20.20
2013,08,23,10,56,20.20
2013,08,23,10,57,20.20
2013,08,23,10,58,20.20
2013,08,23,10,59,20.20
2013,08,23,11,00,20.20
2013,08,23,11,01,20.20
2013,08,23,11,02,20.20
2013,08,23,11,03,20.20
2013,08,23,11,04,20.20
2013,08,23,11,05,20.20
2013,08,23,11,06,20.20
2013,08,23,11,07,20.20
2013,08,23,11,08,20.20
2013,08,23,11,09,20.20
2013,08,23,11,10,20.20
2013,08,23,11,11,20.30
2013,08,23,11,12,20.40
2013,08,23,11,13,20.40
2013,08,23,11,14,20.50
2013,08,23,11,15,20.50
2013,08,23,11,16,20.60
2013,08,23,11,17,20.70
2013,08,23,11,18,20.70
2013,08,23,11,19,20.70
2013,08,23,11,20,20.70
2013,08,23,11,21,20.80
2013,08,23,11,22,20.80
2013,08,23,11,23,20.80
2013,08,23,11,24,20.90
2013,08,23,11,25,20.90
2013,08,23,11,26,20.90
2013,08,23,11,27,20.90
2013,08,23,11,28,20.90
2013,08,23,11,29,20.90
2013,08,23,11,30,20.80
2013,08,23,11,31,20.80
2013,08,23,11,32,20.70
2013,08,23,11,33,20.70
2013,08,23,11,34,20.60
2013,08,23,11,35,20.50
2013,08,23,11,36,20.40
2013,08,23,11,37,20.30
2013,08,23,11,38,20.30
2013,08,23,11,39,20.20
2013,08,23,11,40,20.20
2013,08,23,11,41,20.20
2013,08,23,11,42,20.20
2013,08,23,11,43,20.20
2013,08,23,11,44,20.20
2013,08,23,11,45,20.20
2013,08,23,11,46,20.10
2013,08,23,11,47,20.10
2013,08,23,11,48,20.10
2013,08,23,11,49,20.10
2013,08,23,11,50,20.10
2013,08,23,11,51,19.90
2013,08,23,11,52,19.90
2013,08,23,11,53,19.90
2013,08,23,11,54,19.90
2013,08,23,11,55,19.90
2013,08,23,11,56,19.90
2013,08,23,11,57,19.90
2013,08,23,11,58,19.80
2013,08,23,11,59,19.80
2013,08,23,12,00,19.80
2013,08,23,12,01,19.70
2013,08,23,12,02,19.70
2013,08,23,12,03,19.60
2013,08,23,12,04,19.60
2013,08,23,12,05,19.60
2013,08,23,12,06,19.50
2013,08,23,12,07,19.50
2013,08,23,12,08,19.50
2013,08,23,12,09,19.40
2013,08,23,12,10,19.50
2013,08,23,12,11,19.40
2013,08,23,12,12,19.40
2013,08,23,12,13,19.40
2013,08,23,12,14,19.30
2013,08,23,12,15,19.30
2013,08,23,12,16,19.30
2013,08,23,12,17,19.30
2013,08,23,12,18,19.30
2013,08,23,12,19,19.20
2013,08,23,12,20,19.20
2013,08,23,12,21,19.10
2013,08,23,12,22,19.10
2013,08,23,12,23,19.10
2013,08,23,12,24,19.20
2013,08,23,12,25,19.20
2013,08,23,12,26,19.30
2013,08,23,12,27,19.40
2013,08,23,12,28,19.40
2013,08,23,12,29,19.50
2013,08,23,12,30,19.50
2013,08,23,12,31,19.50
2013,08,23,12,32,19.50
2013,08,23,12,33,19.50
2013,08,23,12,34,19.60
2013,08,23,12,35,19.60
2013,08,23,12,36,19.60
2013,08,23,12,37,19.50
2013,08,23,12,38,19.50
2013,08,23,12,39,19.40
2013,08,23,12,40,19.40
2013,08,23,12,41,19.40
2013,08,23,12,42,19.40
2013,08,23,12,43,19.40
2013,08,23,12,44,19.50
2013,08,23,12,45,19.50
2013,08,23,12,46,19.50
2013,08,23,12,47,19.50
2013,08,23,12,48,19.60
2013,08,23,12,49,19.60
2013,08,23,12,50,19.60
2013,08,23,12,51,19.70
2013,08,23,12,52,19.80
2013,08,23,12,53,19.80
2013,08,23,12,54,19.80
2013,08,23,12,55,19.90
2013,08,23,12,56,19.90
2013,08,23,12,57,19.90
2013,08,23,12,58,19.90
2013,08,23,12,59,19.90
2013,08,23,13,00,19.90
2013,08,23,13,01,19.90
2013,08,23,13,02,19.90
2013,08,23,13,03,19.90
2013,08,23,13,04,19.90
2013,08,23,13,05,19.80
2013,08,23,13,06,19.80
2013,08,23,13,07,19.80
2013,08,23,13,08,19.80
2013,08,23,13,09,19.90
2013,08,23,13,10,19.90
2013,08,23,13,11,19.90
2013,08,23,13,12,20.10
2013,08,23,13,13,20.10
2013,08,23,13,14,20.20
2013,08,23,13,15,20.30
2013,08,23,13,16,20.50
2013,08,23,13,17,20.60
2013,08,23,13,18,20.70
2013,08,23,13,19,20.80
2013,08,23,13,20,20.80
2013,08,23,13,21,20.90
2013,08,23,13,22,21.00
2013,08,23,13,23,21.10
2013,08,23,13,24,21.10
2013,08,23,13,25,21.10
2013,08,23,13,26,21.00
2013,08,23,13,27,21.10
2013,08,23,13,28,21.00
2013,08,23,13,29,21.00
2013,08,23,13,30,21.10
2013,08,23,13,31,21.10
2013,08,23,13,32,21.10
2013,08,23,13,33,21.20
2013,08,23,13,34,21.20
2013,08,23,13,35,21.20
2013,08,23,13,36,21.20
2013,08,23,13,37,21.20
2013,08,23,13,38,21.30
2013,08,23,13,39,21.30
2013,08,23,13,40,21.30
2013,08,23,13,41,21.30
2013,08,23,13,42,21.30
2013,08,23,13,43,21.30
2013,08,23,13,44,21.30
2013,08,23,13,45,21.20
2013,08,23,13,46,21.20
2013,08,23,13,47,21.10
2013,08,23,13,48,21.10
2013,08,23,13,49,21.00
2013,08,23,13,50,20.90
2013,08,23,13,51,20.80
2013,08,23,13,52,20.70
2013,08,23,13,53,20.70
2013,08,23,13,54,20.70
2013,08,23,13,55,20.70
2013,08,23,13,56,20.60
2013,08,23,13,57,20.60
2013,08,23,13,58,20.60
2013,08,23,13,59,20.60
2013,08,23,14,00,20.60
2013,08,23,14,01,20.60
2013,08,23,14,02,20.60
2013,08,23,14,03,20.60
2013,08,23,14,04,20.60
2013,08,23,14,05,20.60
2013,08,23,14,06,20.50
2013,08,23,14,07,20.50
2013,08,23,14,08,20.50
2013,08,23,14,09,20.50
2013,08,23,14,10,20.50
2013,08,23,14,11,20.40
2013,08,23,14,12,20.30
2013,08,23,14,13,20.20
2013,08,23,14,14,20.20
2013,08,23,14,15,20.20
2013,08,23,14,16,20.10
2013,08,23,14,17,20.10
2013,08,23,14,18,20.10
2013,08,23,14,19,20.10
2013,08,23,14,20,20.10
2013,08,23,14,21,20.10
2013,08,23,14,22,20.10
2013,08,23,14,23,20.10
2013,08,23,14,24,20.10
2013,08,23,14,25,20.20
2013,08,23,14,26,20.20
2013,08,23,14,27,20.20
2013,08,23,14,28,20.30
2013,08,23,14,29,20.30
2013,08,23,14,30,20.30
2013,08,23,14,31,20.30
2013,08,23,14,32,20.30
2013,08,23,14,33,20.30
2013,08,23,14,34,20.30
2013,08,23,14,35,20.30
2013,08,23,14,36,20.30
2013,08,23,14,37,20.30
2013,08,23,14,38,20.20
2013,08,23,14,39,20.20
2013,08,23,14,40,20.20
2013,08,23,14,41,20.30
2013,08,23,14,42,20.30
2013,08,23,14,43,20.30
2013,08,23,14,44,20.30
2013,08,23,14,45,20.30
2013,08,23,14,46,20.30
2013,08,23,14,47,20.30
2013,08,23,14,48,20.30
2013,08,23,14,49,20.30
2013,08,23,14,50,20.20
2013,08,23,14,51,20.20
2013,08,23,14,52,20.20
2013,08,23,14,53,20.20
2013,08,23,14,54,20.10
2013,08,23,14,55,20.10
2013,08,23,14,56,20.10
2013,08,23,14,57,19.90
2013,08,23,14,58,19.90
2013,08,23,14,59,19.90
2013,08,23,15,00,19.80
2013,08,23,15,01,19.70
2013,08,23,15,02,19.70
2013,08,23,15,03,19.60
2013,08,23,15,04,19.60
2013,08,23,15,05,19.60
2013,08,23,15,06,19.60
2013,08,23,15,07,19.60
2013,08,23,15,08,19.50
2013,08,23,15,09,19.50
2013,08,23,15,10,19.50
2013,08,23,15,11,19.50
2013,08,23,15,12,19.50
2013,08,23,15,13,19.50
2013,08,23,15,14,19.50
2013,08,23,15,15,19.50
2013,08,23,15,16,19.50
2013,08,23,15,17,19.50
2013,08,23,15,18,19.60
2013,08,23,15,19,19.60
2013,08,23,15,20,19.60
2013,08,23,15,21,19.60
2013,08,23,15,22,19.50
2013,08,23,15,23,19.50
2013,08,23,15,24,19.50
2013,08,23,15,25,19.50
2013,08,23,15,26,19.50
2013,08,23,15,27,19.40
2013,08,23,15,28,19.40
2013,08,23,15,29,19.40
2013,08,23,15,30,19.40
2013,08,23,15,31,19.40
2013,08,23,15,32,19.40
2013,08,23,15,33,19.50
2013,08,23,15,34,19.50
2013,08,23,15,35,19.50
2013,08,23,15,36,19.40
2013,08,23,15,37,19.40
2013,08,23,15,38,19.40
2013,08,23,15,39,19.30
2013,08,23,15,40,19.20
2013,08,23,15,41,19.20
2013,08,23,15,42,19.10
2013,08,23,15,43,19.10
2013,08,23,15,44,19.10
2013,08,23,15,45,19.10
2013,08,23,15,46,19.10
2013,08,23,15,47,19.10
2013,08,23,15,48,18.90
2013,08,23,15,49,18.90
2013,08,23,15,50,18.90
2013,08,23,15,51,18.80
2013,08,23,15,52,18.80
2013,08,23,15,53,18.80
2013,08,23,15,54,18.70
2013,08,23,15,55,18.60
2013,08,23,15,56,18.60
2013,08,23,15,57,18.60
2013,08,23,15,58,18.60
2013,08,23,15,59,18.50
2013,08,23,16,00,18.50
2013,08,23,16,01,18.50
2013,08,23,16,02,18.50
2013,08,23,16,03,18.50
2013,08,23,16,04,18.50
2013,08,23,16,05,18.50
2013,08,23,16,06,18.50
2013,08,23,16,07,18.50
2013,08,23,16,08,18.50
2013,08,23,16,09,18.50
2013,08,23,16,10,18.50
2013,08,23,16,11,18.50
2013,08,23,16,12,18.50
2013,08,23,16,13,18.50
2013,08,23,16,14,18.50
2013,08,23,16,15,18.60
2013,08,23,16,16,18.50
2013,08,23,16,17,18.50
2013,08,23,16,18,18.40
2013,08,23,16,19,18.40
2013,08,23,16,20,18.40
2013,08,23,16,21,18.40
2013,08,23,16,22,18.40
2013,08,23,16,23,18.30
2013,08,23,16,24,18.30
2013,08,23,16,25,18.30
2013,08,23,16,26,18.40
2013,08,23,16,27,18.40
2013,08,23,16,28,18.40
2013,08,23,16,29,18.40
2013,08,23,16,30,18.40
2013,08,23,16,31,18.40
2013,08,23,16,32,18.40
2013,08,23,16,33,18.50
2013,08,23,16,34,18.50
2013,08,23,16,35,18.50
2013,08,23,16,36,18.60
2013,08,23,16,37,18.60
2013,08,23,16,38,18.70
2013,08,23,16,39,18.70
2013,08,23,16,40,18.80
2013,08,23,16,41,18.80
2013,08,23,16,42,18.80
2013,08,23,16,43,18.80
2013,08,23,16,44,18.80
2013,08,23,16,45,18.70
2013,08,23,16,46,18.70
2013,08,23,16,47,18.70
2013,08,23,16,48,18.70
2013,08,23,16,49,18.70
2013,08,23,16,50,18.70
2013,08,23,16,51,18.70
2013,08,23,16,52,18.60
2013,08,23,16,53,18.60
2013,08,23,16,54,18.60
2013,08,23,16,55,18.50
2013,08,23,16,56,18.50
2013,08,23,16,57,18.40
2013,08,23,16,58,18.30
2013,08,23,16,59,18.30
2013,08,23,17,00,18.30
2013,08,23,17,01,18.30
2013,08,23,17,02,18.20
2013,08,23,17,03,18.20
2013,08,23,17,04,18.20
2013,08,23,17,05,18.20
2013,08,23,17,06,18.10
2013,08,23,17,07,17.90
2013,08,23,17,08,17.90
2013,08,23,17,09,17.90
2013,08,23,17,10,17.90
2013,08,23,17,11,17.90
2013,08,23,17,12,17.90
2013,08,23,17,13,17.90
2013,08,23,17,14,17.90
2013,08,23,17,15,17.90
2013,08,23,17,16,17.90
2013,08,23,17,17,17.90
2013,08,23,17,18,17.90
2013,08,23,17,19,17.90
2013,08,23,17,20,18.10
2013,08,23,17,21,18.10
2013,08,23,17,22,18.20
2013,08,23,17,23,18.20
2013,08,23,17,24,18.20
2013,08,23,17,25,18.20
2013,08,23,17,26,18.20
2013,08,23,17,27,18.30
2013,08,23,17,28,18.30
2013,08,23,17,29,18.30
2013,08,23,17,30,18.30
2013,08,23,17,31,18.30
2013,08,23,17,32,18.30
2013,08,23,17,33,18.40
2013,08,23,17,34,18.40
2013,08,23,17,35,18.40
2013,08,23,17,36,18.30
2013,08,23,17,37,18.30
2013,08,23,17,38,18.30
2013,08,23,17,39,18.30
2013,08,23,17,40,18.30
2013,08,23,17,41,18.30
2013,08,23,17,42,18.30
2013,08,23,17,43,18.30
2013,08,23,17,44,18.30
2013,08,23,17,45,18.20
2013,08,23,17,46,18.20
2013,08,23,17,47,18.20
2013,08,23,17,48,18.20
2013,08,23,17,49,18.20
2013,08,23,17,50,18.20
2013,08,23,17,51,18.20
2013,08,23,17,52,18.20
2013,08,23,17,53,18.20
2013,08,23,17,54,18.20
2013,08,23,17,55,18.20
2013,08,23,17,56,18.20
2013,08,23,17,57,18.20
2013,08,23,17,58,18.20
2013,08,23,17,59,18.20
2013,08,23,18,00,18.10
2013,08,23,18,01,18.10
2013,08,23,18,02,18.10
2013,08,23,18,03,18.10
2013,08,23,18,04,18.10
2013,08,23,18,05,18.10
2013,08,23,18,06,18.10
2013,08,23,18,07,18.10
2013,08,23,18,08,18.10
2013,08,23,18,09,18.10
2013,08,23,18,10,18.10
2013,08,23,18,11,18.10
2013,08,23,18,12,18.10
2013,08,23,18,13,18.10
2013,08,23,18,14,18.10
2013,08,23,18,15,18.10
2013,08,23,18,16,18.10
2013,08,23,18,17,18.10
2013,08,23,18,18,18.10
2013,08,23,18,19,18.10
2013,08,23,18,20,18.10
2013,08,23,18,21,18.10
2013,08,23,18,22,17.90
2013,08,23,18,23,17.90
2013,08,23,18,24,17.90
2013,08,23,18,25,17.90
2013,08,23,18,26,17.90
2013,08,23,18,27,17.90
2013,08,23,18,28,17.90
2013,08,23,18,29,17.90
2013,08,23,18,30,17.90
2013,08,23,18,31,17.90
2013,08,23,18,32,17.90
2013,08,23,18,33,17.90
2013,08,23,18,34,17.90
2013,08,23,18,35,17.90
2013,08,23,18,36,17.90
2013,08,23,18,37,17.90
2013,08,23,18,38,17.90
2013,08,23,18,39,17.90
2013,08,23,18,40,17.90
2013,08,23,18,41,17.90
2013,08,23,18,42,17.90
2013,08,23,18,43,17.90
2013,08,23,18,44,17.90
2013,08,23,18,45,17.90
2013,08,23,18,46,17.90
2013,08,23,18,47,17.90
2013,08,23,18,48,17.90
2013,08,23,18,49,17.90
2013,08,23,18,50,17.90
2013,08,23,18,51,17.90
2013,08,23,18,52,17.90
2013,08,23,18,53,17.90
2013,08,23,18,54,17.90
2013,08,23,18,55,17.90
2013,08,23,18,56,17.80
2013,08,23,18,57,17.80
2013,08,23,18,58,17.80
2013,08,23,18,59,17.70
2013,08,23,19,00,17.70
2013,08,23,19,01,17.70
2013,08,23,19,02,17.70
2013,08,23,19,03,17.70
2013,08,23,19,04,17.70
2013,08,23,19,05,17.70
2013,08,23,19,06,17.70
2013,08,23,19,07,17.70
2013,08,23,19,08,17.70
2013,08,23,19,09,17.70
2013,08,23,19,10,17.70
2013,08,23,19,11,17.70
2013,08,23,19,12,17.80
2013,08,23,19,13,17.70
2013,08,23,19,14,17.70
2013,08,23,19,15,17.70
2013,08,23,19,16,17.70
2013,08,23,19,17,17.70
2013,08,23,19,18,17.60
2013,08,23,19,19,17.60
2013,08,23,19,20,17.50
2013,08,23,19,21,17.50
2013,08,23,19,22,17.50
2013,08,23,19,23,17.40
2013,08,23,19,24,17.40
2013,08,23,19,25,17.40
2013,08,23,19,26,17.40
2013,08,23,19,27,17.40
2013,08,23,19,28,17.30
2013,08,23,19,29,17.30
2013,08,23,19,30,17.30
2013,08,23,19,31,17.30
2013,08,23,19,32,17.30
2013,08,23,19,33,17.30
2013,08,23,19,34,17.30
2013,08,23,19,35,17.30
2013,08,23,19,36,17.30
2013,08,23,19,37,17.30
2013,08,23,19,38,17.30
2013,08,23,19,39,17.30
2013,08,23,19,40,17.30
2013,08,23,19,41,17.30
2013,08,23,19,42,17.30
2013,08,23,19,43,17.30
2013,08,23,19,44,17.30
2013,08,23,19,45,17.30
2013,08,23,19,46,17.20
2013,08,23,19,47,17.20
2013,08,23,19,48,17.20
2013,08,23,19,49,17.20
2013,08,23,19,50,17.20
2013,08,23,19,51,17.10
2013,08,23,19,52,17.10
2013,08,23,19,53,17.10
2013,08,23,19,54,17.20
2013,08,23,19,55,17.20
2013,08,23,19,56,17.20
2013,08,23,19,57,17.20
2013,08,23,19,58,17.20
2013,08,23,19,59,17.20
2013,08,23,20,00,17.10
2013,08,23,20,01,17.10
2013,08,23,20,02,17.10
2013,08,23,20,03,17.10
2013,08,23,20,04,17.10
2013,08,23,20,05,17.10
2013,08,23,20,06,17.00
2013,08,23,20,07,17.00
2013,08,23,20,08,17.00
2013,08,23,20,09,17.00
2013,08,23,20,10,17.00
2013,08,23,20,11,16.90
2013,08,23,20,12,16.90
2013,08,23,20,13,16.90
2013,08,23,20,14,17.00
2013,08,23,20,15,17.00
2013,08,23,20,16,17.00
2013,08,23,20,17,17.00
2013,08,23,20,18,17.00
2013,08,23,20,19,17.00
2013,08,23,20,20,17.00
2013,08,23,20,21,17.00
2013,08,23,20,22,16.90
2013,08,23,20,23,17.00
2013,08,23,20,24,17.00
2013,08,23,20,25,17.00
2013,08,23,20,26,17.00
2013,08,23,20,27,17.00
2013,08,23,20,28,16.90
2013,08,23,20,29,16.90
2013,08,23,20,30,16.90
2013,08,23,20,31,16.80
2013,08,23,20,32,16.80
2013,08,23,20,33,16.80
2013,08,23,20,34,16.80
2013,08,23,20,35,16.70
2013,08,23,20,36,16.70
2013,08,23,20,37,16.70
2013,08,23,20,38,16.70
2013,08,23,20,39,16.70
2013,08,23,20,40,16.70
2013,08,23,20,41,16.70
2013,08,23,20,42,16.70
2013,08,23,20,43,16.70
2013,08,23,20,44,16.70
2013,08,23,20,45,16.70
2013,08,23,20,46,16.60
2013,08,23,20,47,16.60
2013,08,23,20,48,16.60
2013,08,23,20,49,16.60
2013,08,23,20,50,16.70
2013,08,23,20,51,16.70
2013,08,23,20,52,16.70
2013,08,23,20,53,16.70
2013,08,23,20,54,16.70
2013,08,23,20,55,16.70
2013,08,23,20,56,16.70
2013,08,23,20,57,16.70
2013,08,23,20,58,16.70
2013,08,23,20,59,16.70
2013,08,23,21,00,16.70
2013,08,23,21,01,16.70
2013,08,23,21,02,16.70
2013,08,23,21,03,16.70
2013,08,23,21,04,16.70
2013,08,23,21,05,16.70
2013,08,23,21,06,16.70
2013,08,23,21,07,16.70
2013,08,23,21,08,16.70
2013,08,23,21,09,16.70
2013,08,23,21,10,16.70
2013,08,23,21,11,16.70
2013,08,23,21,12,16.70
2013,08,23,21,13,16.80
2013,08,23,21,14,16.80
2013,08,23,21,15,16.80